#timestamp,LO_Frequency,Hit 
1499702415.8,286045712.4,N
1499702435.7,286045712.6,N
1499702455.5,286045712.9,N
1499702475.4,286045713.2,N
1499702495.2,286045713.0,N
1499702515.0,286045712.9,N
1499702515.9,286045712.9,N
1499702535.8,286045710.1,N
1499702555.6,286045712.4,N
1499702575.4,286045712.6,N
1499702595.3,286045712.6,N
1499702615.1,286045713.0,N
1499702635.9,286045712.9,N
1499702655.7,286045710.1,N
1499702675.5,286045712.8,N
1499702695.4,286045712.7,N
1499702715.2,286045712.4,N
1499702735.0,286045712.2,N
1499702735.9,286045712.2,N
1499702755.8,286045713.0,N
1499702775.6,286045710.5,N
1499702795.5,286045711.4,N
1499702815.3,286045709.0,N
1499702835.1,286045711.2,N
1499702855.9,286045708.7,N
1499702875.7,286045709.3,N
1499702895.5,286045709.8,N
1499702915.4,286045709.4,N
1499702935.2,286045709.7,N
1499702955.1,286045709.6,N
1499702956.0,286045709.6,N
1499702975.8,286045709.2,N
1499702995.6,286045709.1,N
1499703015.5,286045709.7,N
1499703035.3,286045707.1,N
1499703055.1,286045706.9,N
1499703075.9,286045707.3,N
1499703095.7,286045709.9,N
1499703115.6,286045707.1,N
1499703135.4,286045707.5,N
1499703155.2,286045708.1,N
1499703175.1,286045707.6,N
1499703176.0,286045707.6,N
1499703195.8,286045708.1,N
1499703215.7,286045707.5,N
1499703235.5,286045707.5,N
1499703255.3,286045708.2,N
1499703275.2,286045708.0,N
1499703295.0,286045707.8,N
1499703295.9,286045707.8,N
1499703315.7,286045707.6,N
1499703335.6,286045708.1,N
1499703355.4,286045707.9,N
1499703375.3,286045707.2,N
1499703395.1,286045708.3,N
1499703396.0,286045708.3,N
1499703415.8,286045708.0,N
1499703435.7,286045705.5,N
1499703455.5,286045707.9,N
1499703475.3,286045705.8,N
1499703495.2,286045706.4,N
1499703515.0,286045706.1,N
1499703515.9,286045706.1,N
1499703535.8,286045707.2,N
1499703555.6,286045708.2,N
1499703575.4,286045705.5,N
1499703595.3,286045706.6,N
1499703615.1,286045706.7,N
1499703635.9,286045706.8,N
1499703655.7,286045706.6,N
1499703675.5,286045704.6,N
1499703695.4,286045704.1,N
1499703715.2,286045706.4,N
1499703735.0,286045704.2,N
1499703735.9,286045704.2,N
1499703755.8,286045703.9,N
1499703775.6,286045704.1,N
1499703795.5,286045703.7,N
1499703815.3,286045704.9,N
1499703835.1,286045704.6,N
1499703855.9,286045705.1,N
1499703875.7,286045702.6,N
1499703895.5,286045705.2,N
1499703915.4,286045705.0,N
1499703935.2,286045702.5,N
1499703955.1,286045703.7,N
1499703956.0,286045703.7,N
1499703975.8,286045705.0,N
1499703995.6,286045704.0,N
1499704015.5,286045704.9,N
1499704035.3,286045705.1,N
1499704055.1,286045705.1,N
1499704075.9,286045702.6,N
1499704095.7,286045704.9,N
1499704115.6,286045705.2,N
1499704135.4,286045704.7,N
1499704155.2,286045702.9,N
1499704175.1,286045705.2,N
1499704176.0,286045705.2,N
1499704195.8,286045705.1,N
1499704215.7,286045702.8,N
1499704235.5,286045705.2,N
1499704255.3,286045702.6,N
1499704275.2,286045702.3,N
1499704295.9,286045703.4,N
1499704315.7,286045703.1,N
1499704335.6,286045702.9,N
1499704355.4,286045701.0,N
1499704375.3,286045700.5,N
1499704395.1,286045700.8,N
1499704396.0,286045700.8,N
1499704415.8,286045700.5,N
1499704435.7,286045701.1,N
1499704455.5,286045700.9,N
1499704475.3,286045703.6,N
1499704495.2,286045703.5,N
1499704515.0,286045701.8,N
1499704515.9,286045701.8,N
1499704535.8,286045699.0,N
1499704555.6,286045699.3,N
1499704575.4,286045699.3,N
1499704595.3,286045700.1,N
1499704615.1,286045698.9,N
1499704635.8,286045700.2,N
1499704655.7,286045699.0,N
1499704675.5,286045701.5,N
1499704695.4,286045699.5,N
1499704715.2,286045698.9,N
1499704735.0,286045699.3,N
1499704735.9,286045699.3,N
1499704755.8,286045699.3,N
1499704775.6,286045701.5,N
1499704795.4,286045701.8,N
1499704815.3,286045699.0,N
1499704835.1,286045699.1,N
1499704855.9,286045699.0,N
1499704875.7,286045699.5,N
1499704895.5,286045699.0,N
1499704915.4,286045699.2,N
1499704935.2,286045697.4,N
1499704955.0,286045697.9,N
1499704956.0,286045697.9,N
1499704975.8,286045697.8,N
1499704995.6,286045700.2,N
1499705015.5,286045699.8,N
1499705035.3,286045699.1,N
1499705055.1,286045702.0,N
1499705075.9,286045699.0,N
1499705095.7,286045699.3,N
1499705115.6,286045701.9,N
1499705135.4,286045699.3,N
1499705155.2,286045699.8,N
1499705175.1,286045702.0,N
1499705176.0,286045702.0,N
1499705195.8,286045702.0,N
1499705215.7,286045701.9,N
1499705235.5,286045701.4,N
1499705255.3,286045701.2,N
1499705275.2,286045701.3,N
1499705295.0,286045700.9,N
1499705295.9,286045700.9,N
1499705315.8,286045703.6,N
1499705335.6,286045700.9,N
1499705355.4,286045700.5,N
1499705375.3,286045700.8,N
1499705395.1,286045701.4,N
1499705415.8,286045701.0,N
1499705435.7,286045701.2,N
1499705455.5,286045700.5,N
1499705475.4,286045703.4,N
1499705495.2,286045700.5,N
1499705515.0,286045701.2,N
1499705515.9,286045701.2,N
1499705535.8,286045701.2,N
1499705555.6,286045700.8,N
1499705575.4,286045702.4,N
1499705595.3,286045703.5,N
1499705615.1,286045702.8,N
1499705635.9,286045702.4,N
1499705655.7,286045703.4,N
1499705675.5,286045703.4,N
1499705695.4,286045700.7,N
1499705715.2,286045700.6,N
1499705735.0,286045703.5,N
1499705735.9,286045703.5,N
1499705755.8,286045702.5,N
1499705775.6,286045703.4,N
1499705795.5,286045702.4,N
1499705815.3,286045703.2,N
1499705835.1,286045703.3,N
1499705855.9,286045703.3,N
1499705875.7,286045703.2,N
1499705895.5,286045703.1,N
1499705915.4,286045705.2,N
1499705935.2,286045702.4,N
1499705955.1,286045702.7,N
1499705956.0,286045702.7,N
1499705975.8,286045702.5,N
1499705995.6,286045703.0,N
